User: anonymous   Login
Location: Unspecified
(0.0000°N, 0.0000°E)
Time: 05:34:45
(UTC+00:00)
Language:

SOHLA-1 (MAIDO-1) - Orbit

View from above orbital plane
View from above orbital plane
View from above satellite
View from above satellite

Ground track
Ground track

The orbit data is extracted from the following two-line orbital elements,

1 33496U 09002E   19083.51033138  .00000013  00000-0  10686-4 0  9990
2 33496  98.3821 260.2228 0007405 119.0699 241.1249 14.71805428545592
Epoch (UTC): 24 March 2019 12:14:52
Eccentricity: 0.0007405
inclination: 98.3821°
perigee height: 650 km
apogee height: 660 km
right ascension of ascending node: 260.2228°
argument of perigee: 119.0699°
revolutions per day: 14.71805428
mean anomaly at epoch: 241.1249°
orbit number at epoch: 54559

The dashed part of the orbit path shows where the satellite is in the earth's shadow,  

DLR